User: anonymous   Login
Location: Oshawa
(43.9000°N, 78.8670°W)
Time: 02:33:07
(UTC-04:00)
Language:

Altair - Orbit

View from above orbital plane
View from above orbital plane
View from above satellite
View from above satellite

Ground track
Ground track

The orbit data is extracted from the following two-line orbital elements,

1    50U 60009B   18169.53876299 -.00000033 +00000-0 +48879-3 0  9990
2    50 047.2298 226.6717 0113974 309.9250 049.1569 12.20104919581101
Epoch (UTC): 18 June 2018 12:55:49
Eccentricity: 0.0113974
inclination: 47.2298°
perigee height: 1501 km
apogee height: 1683 km
right ascension of ascending node: 226.6717°
argument of perigee: 309.9250°
revolutions per day: 12.20104919
mean anomaly at epoch: 49.1569°
orbit number at epoch: 58110

The dashed part of the orbit path shows where the satellite is in the earth's shadow,  

DLR